Regional Weather Roundup
Issued by NWS

Home | Current Version | Previous Version | Graphics & Text | Print | Product List | Glossary On
Versions: 1 2 3 4 5 6 7 8 9 10 11 12 13 14 15 16 17 18 19 20 21 22 23 24 25 26 27 28 29 30 31 32 33 34 35 36 37 38 39 40 41 42 43 44 45 46 47 48 49 50
000
ASUS43 KFSD 201102
RWRSD

WEATHER ROUNDUP FOR SOUTH DAKOTA
NATIONAL WEATHER SERVICE SIOUX FALLS SD
600 AM CDT FRI APR 20 2018

NOTE: "FAIR" INDICATES FEW OR NO CLOUDS BELOW 12,000 FEET WITH NO
SIGNIFICANT WEATHER AND/OR OBSTRUCTIONS TO VISIBILITY.


SDZ001>005-009-010-012>017-201200-
NORTHWEST AND NORTH CENTRAL SOUTH DAKOTA

CITY           SKY/WX    TMP DP  RH WIND       PRES   REMARKS
BUFFALO          N/A     35  28  75 E12       30.08S WCI  27
FAITH            N/A     32  29  88 SE16      30.20F WCI  21
MOBRIDGE       PTCLDY    33  27  78 SE9       30.27F WCI  25
$$

SDZ012>016-024>037-041>051-057-063-072>074-201200-
SOUTHWEST AND SOUTH CENTRAL SOUTH DAKOTA

CITY           SKY/WX    TMP DP  RH WIND       PRES   REMARKS
RAPID CTY ARPT CLOUDY    36  28  73 SE12      30.14F
PIERRE         CLOUDY    34  31  88 E12       30.28S WCI  25
CUSTER         MOCLDY    32  23  69 E8        30.10F WCI  25
ELLSWORTH AFB  CLOUDY    38  29  71 S12       30.13F
PHILIP         MOCLDY    31  28  89 E10       30.21S WCI  22
PINE RIDGE     CLOUDY    41  29  62 E9        30.12F
SPEARFISH      FAIR      41  27  56 E12       30.09R
WINNER         FAIR      34  29  82 E14       30.27F WCI  25
$$

SDZ004>011-016>023-039-040-201200-
NORTHEAST SOUTH DAKOTA

CITY           SKY/WX    TMP DP  RH WIND       PRES   REMARKS
ABERDEEN       PTCLDY    26  22  84 SE6       30.39S WCI  19
WATERTOWN      CLOUDY    30  22  72 SE6       30.39S WCI  24
BROOKINGS      CLOUDY    28  24  85 SE5       30.41F WCI  23
SISSETON         N/A     31  24  75 SE3       30.40F
$$

SDZ017-020-022-023-036>040-048>070-201200-
SOUTHEAST SOUTH DAKOTA

CITY           SKY/WX    TMP DP  RH WIND       PRES   REMARKS
SIOUX FALLS    PTCLDY    29  20  69 E6        30.41F WCI  23
HURON          MOCLDY    30  24  78 SE6       30.38S WCI  24
CHAMBERLAIN    CLOUDY    34  33  96 SE13      30.32S WCI  25
MITCHELL       PTCLDY    29  24  82 SE8       30.38F WCI  21
YANKTON        CLOUDY    30  26  85 E6        30.40R WCI  24
$$

ABBREVIATIONS USED IN REMARKS
   TC - TEMPERATURE IN CELSIUS
  WCI - WIND CHILL INDEX
   HX - HEAT INDEX
  VSB - VISIBILITY




USA.gov is the U.S. government's official web portal to all federal, state and local government web resources and services.